User: anonymous   Login
Location: Hawks Ness
(60.2333°N, 1.1667°W)
Time: 23:27:54
(UTC+00:00)
Language:

PSLV R/B - Orbit

View from above orbital plane
View from above orbital plane
View from above satellite
View from above satellite

Ground track
Ground track

The orbit data is extracted from the following two-line orbital elements,

1 29713U 07001E   19347.88188407  .00000144  00000-0  23019-4 0  9996
2 29713  97.8878 314.6755 0024967 356.3137   3.7890 14.85512156699108
Epoch (UTC): 13 December 2019 21:09:54
Eccentricity: 0.0024967
inclination: 97.8878°
perigee height: 594 km
apogee height: 629 km
right ascension of ascending node: 314.6755°
argument of perigee: 356.3137°
revolutions per day: 14.85512156
mean anomaly at epoch: 3.7890°
orbit number at epoch: 69910

The dashed part of the orbit path shows where the satellite is in the earth's shadow,  

DLR